DW3800 Weather Reports


Display with metric or nautical units.
time (UTC)temp
F
wind
direction
speed
MPH
gust
MPH
rain 1hr
in
rain 24hr
in
rain mn
in
humidity
%
barometer
mb
20260831195821 91 304 2.0 3.0 0.00 0.00 0.00 53 1014.1
20260831195317 90 220 1.0 3.0 0.00 0.00 0.00 53 1013.8
20260831194812 90 330 2.0 6.0 0.00 0.00 0.00 56 1013.8
20260831194307 91 227 1.0 3.0 0.00 0.00 0.00 55 1013.6
20260831193806 91 184 0.0 2.0 0.00 0.00 0.00 56 1013.9
20260831193301 91 172 1.0 5.0 0.00 0.00 0.00 57 1013.8
20260831192756 89 296 2.0 3.0 0.00 0.00 0.00 57 1014.1
20260831192251 88 44 1.0 7.0 0.00 0.00 0.00 58 1014.0
20260831191747 89 90 2.0 5.0 0.00 0.00 0.00 59 1014.0
20260831191244 89 118 2.0 2.0 0.00 0.00 0.00 56 1013.9
20260831190739 89 181 0.0 1.0 0.00 0.00 0.00 60 1013.8
20260831190238 88 255 2.0 6.0 0.00 0.00 0.00 60 1013.7
20260831185733 87 146 0.0 3.0 0.00 0.00 0.00 63 1013.8
20260831185229 87 324 3.0 3.0 0.00 0.00 0.00 64 1013.8
20260831184728 87 138 2.0 7.0 0.00 0.00 0.00 64 1013.7
20260831184224 88 257 3.0 3.0 0.00 0.00 0.00 59 1013.7
20260831183723 87 82 3.0 5.0 0.00 0.00 0.00 60 1013.8
20260831183218 88 196 2.0 2.0 0.00 0.00 0.00 59 1013.9
20260831182717 88 239 1.0 6.0 0.00 0.00 0.00 56 1013.9
20260831182213 88 240 1.0 8.0 0.00 0.00 0.00 62 1014.0
20260831181712 88 180 1.0 5.0 0.00 0.00 0.00 57 1013.8
20260831181208 89 164 0.0 1.0 0.00 0.00 0.00 69 1014.0
20260831180702 87 200 2.0 2.0 0.00 0.00 0.00 67 1014.0
20260831180152 87 175 2.0 3.0 0.00 0.00 0.00 72 1013.9
20260831175651 87 185 1.0 2.0 0.00 0.00 0.00 72 1013.8
20260831175148 87 194 1.0 6.0 0.00 0.00 0.00 72 1013.8
20260831174643 86 160 1.0 2.0 0.00 0.00 0.00 74 1014.0
20260831174138 86 123 1.0 3.0 0.00 0.00 0.00 74 1014.2
20260831173636 85 334 1.0 5.0 0.00 0.00 0.00 75 1014.1
20260831173133 85 355 3.0 5.0 0.00 0.00 0.00 75 1014.1
20260831172632 85 345 4.0 5.0 0.00 0.00 0.00 75 1014.2
20260831172132 85 207 2.0 3.0 0.00 0.00 0.00 76 1014.4
20260831171627 84 163 1.0 3.0 0.00 0.00 0.00 77 1014.1
20260831171125 85 70 3.0 5.0 0.00 0.00 0.00 77 1014.1
20260831170621 84 164 1.0 1.0 0.00 0.00 0.00 80 1014.2
20260831170118 84 262 1.0 5.0 0.00 0.00 0.00 78 1014.1
20260831165613 84 171 1.0 2.0 0.00 0.00 0.00 79 1014.1
20260831165110 84 249 2.0 2.0 0.00 0.00 0.00 78 1014.1
20260831164605 84 175 1.0 5.0 0.00 0.00 0.00 79 1013.9
20260831164101 84 210 2.0 2.0 0.00 0.00 0.00 80 1013.8
20260831163555 84 162 1.0 1.0 0.00 0.00 0.00 79 1013.9
20260831163051 83 236 1.0 2.0 0.00 0.00 0.00 79 1014.0
20260831162550 83 155 2.0 3.0 0.00 0.00 0.00 79 1014.1
20260831162048 83 208 1.0 5.0 0.00 0.00 0.00 81 1013.9
20260831161544 82 241 3.0 5.0 0.00 0.00 0.00 82 1013.9
20260831161041 82 172 2.0 5.0 0.00 0.00 0.00 83 1013.9
20260831160539 82 230 1.0 2.0 0.00 0.00 0.00 82 1013.8
20260831160036 82 261 2.0 2.0 0.00 0.00 0.00 83 1013.8
20260831155530 82 227 2.0 2.0 0.00 0.00 0.00 83 1014.0
20260831155025 82 212 2.0 6.0 0.00 0.00 0.00 83 1014.1
20260831154521 82 247 1.0 2.0 0.00 0.00 0.00 83 1013.9
20260831154020 81 237 1.0 3.0 0.00 0.00 0.00 84 1014.0
20260831153515 81 102 2.0 3.0 0.00 0.00 0.00 83 1013.6
20260831153012 82 200 4.0 6.0 0.00 0.00 0.00 83 1013.7
20260831152507 81 232 1.0 1.0 0.00 0.00 0.00 84 1013.5
20260831152002 80 166 1.0 5.0 0.00 0.00 0.00 85 1013.5
20260831151501 80 107 0.0 2.0 0.00 0.00 0.00 86 1013.6
20260831150956 80 222 2.0 3.0 0.00 0.00 0.00 86 1013.2
20260831150452 79 125 0.0 1.0 0.00 0.00 0.00 86 1013.4
20260831145951 79 231 1.0 5.0 0.00 0.00 0.00 87 1013.1
20260831145447 79 143 1.0 5.0 0.00 0.00 0.00 88 1013.2
20260831144943 78 167 0.0 2.0 0.00 0.00 0.00 88 1013.2
20260831144438 78 151 2.0 2.0 0.00 0.00 0.00 88 1013.1
20260831143933 78 179 3.0 5.0 0.00 0.00 0.00 88 1013.0
20260831143428 78 194 2.0 3.0 0.00 0.00 0.00 88 1013.0
20260831142924 77 169 5.0 5.0 0.00 0.00 0.00 89 1012.7
20260831142420 77 259 4.0 6.0 0.00 0.00 0.00 89 1013.1
20260831141914 78 219 3.0 3.0 0.00 0.00 0.00 89 1012.8
20260831141408 77 192 1.0 2.0 0.00 0.00 0.00 89 1012.8
20260831140903 76 228 1.0 3.0 0.00 0.00 0.00 90 1012.5
20260831140358 76 252 3.0 3.0 0.00 0.00 0.00 91 1012.7
20260831135857 76 268 2.0 3.0 0.00 0.00 0.00 91 1012.6
20260831135356 76 133 1.0 1.0 0.00 0.00 0.00 92 1012.5
20260831134852 75 169 2.0 3.0 0.00 0.00 0.00 92 1012.5
20260831134348 75 138 1.0 3.0 0.00 0.00 0.00 92 1012.4
20260831133847 75 221 3.0 5.0 0.00 0.00 0.00 93 1012.4
20260831133342 74 144 3.0 5.0 0.00 0.00 0.00 94 1012.4
20260831132837 74 226 2.0 3.0 0.00 0.00 0.00 95 1012.3
20260831132332 73 192 0.0 2.0 0.00 0.00 0.00 96 1012.3
20260831131832 73 241 3.0 3.0 0.00 0.00 0.00 97 1012.1
20260831131328 73 119 0.0 2.0 0.00 0.00 0.00 98 1012.3
20260831130823 72 217 1.0 1.0 0.00 0.00 0.00 99 1012.1
20260831130319 72 157 1.0 3.0 0.00 0.00 0.00 99 1011.8
20260831125818 72 232 2.0 3.0 0.00 0.00 0.00 99 1012.2
20260831125313 71 132 0.0 1.0 0.00 0.00 0.00 99 1012.0
20260831124813 71 180 0.0 1.0 0.00 0.00 0.00 99 1011.7
20260831124310 71 168 1.0 3.0 0.00 0.00 0.00 99 1012.1
20260831123809 71 157 0.0 3.0 0.00 0.00 0.00 99 1012.1
20260831123308 71 148 0.0 0.0 0.00 0.00 0.00 99 1012.0
20260831122803 71 166 0.0 1.0 0.00 0.00 0.00 99 1011.8
20260831122258 71 146 0.0 0.0 0.00 0.00 0.00 99 1012.0
20260831121753 71 181 1.0 2.0 0.00 0.00 0.00 99 1012.0
20260831121249 70 115 0.0 0.0 0.00 0.00 0.00 99 1012.0
20260831120744 70 159 0.0 0.0 0.00 0.00 0.00 99 1011.7
20260831120239 70 129 0.0 0.0 0.00 0.00 0.00 99 1011.6
20260831115734 70 132 0.0 0.0 0.00 0.00 0.00 99 1011.5
20260831115230 70 110 0.0 0.0 0.00 0.00 0.00 99 1011.5
20260831114729 70 124 0.0 0.0 0.00 0.00 0.00 99 1011.6
20260831114229 70 130 0.0 0.0 0.00 0.00 0.00 99 1011.5
20260831113725 70 121 0.0 0.0 0.00 0.00 0.00 99 1011.4
20260831113219 70 113 0.0 0.0 0.00 0.00 0.00 99 1011.2
20260831112718 70 111 0.0 0.0 0.00 0.00 0.00 99 1011.1
20260831112214 70 153 0.0 1.0 0.00 0.00 0.00 99 1011.1
20260831111709 70 114 0.0 0.0 0.00 0.00 0.00 99 1010.9
20260831111206 70 97 0.0 0.0 0.00 0.00 0.00 99 1011.0
20260831110701 70 109 0.0 0.0 0.00 0.00 0.00 99 1011.0
20260831110156 70 106 0.0 0.0 0.00 0.00 0.00 99 1011.0
20260831105655 70 108 0.0 0.0 0.00 0.00 0.00 99 1011.0
20260831105150 70 121 0.0 0.0 0.00 0.00 0.00 99 1010.9
20260831104645 70 115 0.0 0.0 0.00 0.00 0.00 99 1011.0
20260831104142 70 98 0.0 0.0 0.00 0.00 0.00 99 1011.0
20260831103637 70 123 0.0 1.0 0.00 0.00 0.00 99 1010.8
20260831103132 70 111 0.0 0.0 0.00 0.00 0.00 99 1010.9
20260831102632 70 114 0.0 0.0 0.00 0.00 0.00 99 1010.8
20260831102127 70 106 0.0 1.0 0.00 0.00 0.00 99 1011.0
20260831101627 70 105 0.0 0.0 0.00 0.00 0.00 99 1010.9
20260831101123 70 88 0.0 0.0 0.00 0.00 0.00 99 1011.0
20260831100619 71 100 0.0 0.0 0.00 0.00 0.00 98 1010.8
20260831100115 71 119 2.0 3.0 0.00 0.00 0.00 98 1011.0
20260831095613 71 113 0.0 0.0 0.00 0.00 0.00 98 1010.9
20260831095108 71 105 0.0 0.0 0.00 0.00 0.00 98 1011.1
20260831094603 71 106 1.0 1.0 0.00 0.00 0.00 98 1011.0
20260831094100 71 112 1.0 3.0 0.00 0.00 0.00 98 1010.9
20260831093554 71 109 0.0 1.0 0.00 0.00 0.00 98 1010.8
20260831093051 71 8 0.0 1.0 0.00 0.00 0.00 98 1010.9
20260831092547 71 115 0.0 1.0 0.00 0.00 0.00 97 1010.8
20260831092042 71 124 0.0 1.0 0.00 0.00 0.00 97 1010.8
20260831091542 71 105 1.0 2.0 0.00 0.00 0.00 97 1010.7
20260831091038 71 103 0.0 2.0 0.00 0.00 0.00 97 1011.1
20260831090533 71 107 1.0 1.0 0.00 0.00 0.00 97 1011.1
20260831090029 71 101 0.0 1.0 0.00 0.00 0.00 97 1010.9
20260831085524 71 134 1.0 3.0 0.00 0.00 0.00 97 1011.1
20260831085019 71 132 0.0 3.0 0.00 0.00 0.00 97 1011.2
20260831084515 71 137 1.0 1.0 0.00 0.00 0.00 97 1010.8
20260831084011 71 102 0.0 0.0 0.00 0.00 0.00 97 1010.8
20260831083506 71 114 0.0 2.0 0.00 0.00 0.00 96 1010.8
20260831083000 71 131 2.0 3.0 0.00 0.00 0.00 96 1010.8
20260831082500 71 131 0.0 1.0 0.00 0.00 0.00 96 1010.7
20260831081954 71 107 1.0 5.0 0.00 0.00 0.00 96 1010.6
20260831081450 71 99 0.0 0.0 0.00 0.00 0.00 96 1010.6
20260831080946 71 101 1.0 2.0 0.00 0.00 0.00 96 1010.7
20260831080441 71 174 1.0 2.0 0.00 0.00 0.00 96 1010.6
20260831075936 71 122 0.0 0.0 0.00 0.00 0.00 96 1010.6
20260831075432 71 110 0.0 3.0 0.00 0.00 0.00 95 1010.8
20260831074927 71 103 0.0 1.0 0.00 0.00 0.00 95 1010.8
20260831074426 71 118 1.0 1.0 0.00 0.00 0.00 95 1010.8
20260831073921 71 113 2.0 6.0 0.00 0.00 0.00 95 1010.8
20260831073421 71 125 1.0 3.0 0.00 0.00 0.00 95 1010.9
20260831072915 71 130 0.0 1.0 0.00 0.00 0.00 95 1010.8
20260831072411 71 126 0.0 1.0 0.00 0.00 0.00 95 1010.8
20260831071908 71 100 0.0 1.0 0.00 0.00 0.00 95 1011.1
20260831071406 71 105 0.0 1.0 0.00 0.00 0.00 94 1010.9
20260831070901 71 117 0.0 2.0 0.00 0.00 0.00 94 1011.0
20260831070400 71 125 1.0 2.0 0.00 0.00 0.00 94 1010.9
20260831065859 71 92 0.0 1.0 0.00 0.00 0.00 94 1011.0
20260831065357 71 81 0.0 1.0 0.00 0.00 0.00 94 1011.0
20260831064853 72 100 0.0 2.0 0.00 0.00 0.00 94 1011.2
20260831064348 72 103 0.0 0.0 0.00 0.00 0.00 93 1011.4
20260831063843 72 113 1.0 1.0 0.00 0.00 0.00 93 1011.3
20260831063339 72 110 1.0 2.0 0.00 0.00 0.00 93 1011.3
20260831062838 72 106 1.0 2.0 0.00 0.00 0.00 93 1011.7
20260831062333 72 111 0.0 1.0 0.00 0.00 0.00 93 1011.5
20260831061832 72 170 1.0 1.0 0.00 0.00 0.00 93 1011.6
20260831061331 72 144 0.0 0.0 0.00 0.00 0.00 93 1011.5
20260831060828 72 63 0.0 0.0 0.00 0.00 0.00 92 1011.3
20260831060322 72 58 0.0 3.0 0.00 0.00 0.00 92 1011.5
20260831055821 72 79 1.0 2.0 0.00 0.00 0.00 92 1011.7
20260831055317 72 122 1.0 1.0 0.00 0.00 0.00 92 1011.7
20260831054812 72 89 0.0 1.0 0.00 0.00 0.00 92 1011.8
20260831054307 72 117 1.0 1.0 0.00 0.00 0.00 92 1012.0
20260831053806 72 112 1.0 1.0 0.00 0.00 0.00 91 1012.1
20260831053305 73 100 0.0 3.0 0.00 0.00 0.00 91 1012.2
20260831052759 73 111 0.0 6.0 0.00 0.00 0.00 91 1012.3
20260831052258 73 91 1.0 3.0 0.00 0.00 0.00 91 1012.2
20260831051757 73 112 2.0 3.0 0.00 0.00 0.00 90 1012.4
20260831051256 73 125 0.0 1.0 0.00 0.00 0.00 90 1012.5
20260831050751 73 124 3.0 5.0 0.00 0.00 0.00 90 1012.4
20260831050250 73 165 0.0 2.0 0.00 0.00 0.00 90 1012.5
20260831045744 73 152 2.0 3.0 0.00 0.00 0.00 90 1012.5
20260831045239 73 114 0.0 2.0 0.00 0.00 0.00 89 1012.4
20260831044733 73 133 3.0 3.0 0.00 0.00 0.00 89 1012.5
20260831044229 73 127 0.0 5.0 0.00 0.00 0.00 89 1012.2
20260831043724 73 83 2.0 3.0 0.00 0.00 0.00 89 1012.5
20260831043219 73 118 0.0 1.0 0.00 0.00 0.00 89 1012.3
20260831042718 74 124 1.0 3.0 0.00 0.00 0.00 88 1012.6
20260831042213 74 121 1.0 3.0 0.00 0.00 0.00 88 1012.6
20260831041708 74 113 1.0 2.0 0.00 0.00 0.00 88 1012.4
20260831041203 74 128 3.0 6.0 0.00 0.00 0.00 88 1012.5
20260831040657 74 137 3.0 8.0 0.00 0.00 0.00 88 1012.5
20260831040156 74 139 1.0 3.0 0.00 0.00 0.00 88 1012.3
20260831035655 74 106 2.0 3.0 0.00 0.00 0.00 88 1012.3
20260831035150 74 82 1.0 5.0 0.00 0.00 0.00 88 1012.3
20260831034648 74 100 2.0 5.0 0.00 0.00 0.00 88 1012.6
20260831034144 74 116 1.0 3.0 0.00 0.00 0.00 87 1012.4
20260831033640 74 160 3.0 5.0 0.00 0.00 0.00 87 1012.6
20260831033134 74 116 0.0 5.0 0.00 0.00 0.00 87 1012.3
20260831032634 75 185 1.0 2.0 0.00 0.00 0.00 87 1012.6
20260831032130 75 101 3.0 9.0 0.00 0.00 0.00 87 1012.6
20260831031630 75 111 1.0 3.0 0.00 0.00 0.00 86 1012.3
20260831031130 75 163 1.0 2.0 0.00 0.00 0.00 86 1012.3
20260831030628 75 111 2.0 3.0 0.00 0.00 0.00 86 1012.4
20260831030128 75 75 3.0 5.0 0.00 0.00 0.00 85 1012.4
20260831025626 75 121 2.0 5.0 0.00 0.00 0.00 85 1012.5
20260831025121 75 123 1.0 5.0 0.00 0.00 0.00 85 1012.5
20260831024618 76 92 1.0 5.0 0.00 0.00 0.00 84 1012.3
20260831024116 76 70 1.0 3.0 0.00 0.00 0.00 84 1012.5
20260831023615 76 63 2.0 3.0 0.00 0.00 0.00 84 1012.4
20260831023114 76 143 3.0 7.0 0.00 0.00 0.00 83 1012.5
20260831022609 76 78 0.0 5.0 0.00 0.00 0.00 83 1012.4
20260831022104 76 153 4.0 7.0 0.00 0.00 0.00 83 1012.5
20260831021603 77 133 3.0 5.0 0.00 0.00 0.00 82 1012.4
20260831021059 77 120 1.0 7.0 0.00 0.00 0.00 82 1012.4
20260831020554 77 158 0.0 3.0 0.00 0.00 0.00 81 1012.5
20260831020049 77 137 2.0 6.0 0.00 0.00 0.00 80 1012.5
20260831015545 77 171 2.0 6.0 0.00 0.00 0.00 79 1012.6
20260831015039 78 104 2.0 6.0 0.00 0.00 0.00 79 1012.7
20260831014534 78 169 4.0 7.0 0.00 0.00 0.00 78 1012.5
20260831014030 78 99 0.0 5.0 0.00 0.00 0.00 78 1012.2
20260831013525 79 137 2.0 7.0 0.00 0.00 0.00 76 1012.5
20260831013020 79 110 1.0 5.0 0.00 0.00 0.00 75 1012.2
20260831012514 79 114 2.0 8.0 0.00 0.00 0.00 74 1012.2
20260831012015 80 108 1.0 5.0 0.00 0.00 0.00 74 1011.8
20260831011509 80 116 3.0 3.0 0.00 0.00 0.00 74 1012.2
20260831011005 80 107 3.0 10.0 0.00 0.00 0.00 73 1012.2
20260831010504 81 92 5.0 9.0 0.00 0.00 0.00 73 1012.1
20260831010001 81 136 0.0 7.0 0.00 0.00 0.00 74 1012.0
20260831005456 81 102 1.0 2.0 0.00 0.00 0.00 73 1012.0
20260831004955 82 112 2.0 2.0 0.00 0.00 0.00 73 1011.8
20260831004452 82 128 2.0 5.0 0.00 0.00 0.00 72 1011.7
20260831003948 82 148 1.0 6.0 0.00 0.00 0.00 72 1011.8
20260831003444 82 126 0.0 2.0 0.00 0.00 0.00 72 1011.7
20260831002943 82 124 0.0 2.0 0.00 0.00 0.00 72 1011.6
20260831002442 83 113 1.0 5.0 0.00 0.00 0.00 72 1011.5
20260831001938 83 87 0.0 2.0 0.00 0.00 0.00 72 1011.3
20260831001433 83 114 3.0 3.0 0.00 0.00 0.00 71 1011.3
20260831000930 83 118 1.0 8.0 0.00 0.00 0.00 71 1011.4
20260831000426 84 112 2.0 7.0 0.00 0.00 0.00 71 1011.4
20260830235923 84 134 1.0 6.0 0.00 0.00 0.00 71 1011.2
20260830235419 84 104 1.0 2.0 0.00 0.00 0.00 71 1011.4
20260830234914 84 116 1.0 3.0 0.00 0.00 0.00 71 1011.6
20260830234409 84 148 2.0 3.0 0.00 0.00 0.00 72 1011.4
20260830233905 85 105 3.0 5.0 0.00 0.00 0.00 72 1011.4
20260830233400 85 147 2.0 7.0 0.00 0.00 0.00 72 1011.5
20260830232855 84 107 2.0 6.0 0.00 0.00 0.00 74 1011.3
20260830232351 84 180 4.0 6.0 0.00 0.00 0.00 77 1011.4
20260830231848 84 109 0.0 5.0 0.00 0.00 0.00 77 1011.4
20260830231343 84 108 0.0 6.0 0.00 0.00 0.00 77 1011.3
20260830230842 85 342 4.0 6.0 0.00 0.00 0.00 75 1011.5
20260830230337 85 205 2.0 5.0 0.00 0.00 0.00 75 1011.6
20260830225831 85 100 4.0 8.0 0.00 0.00 0.00 76 1011.5
20260830225326 84 327 0.0 1.0 0.00 0.00 0.00 76 1011.4
20260830224821 84 114 1.0 5.0 0.00 0.00 0.00 76 1011.4
20260830224315 84 303 1.0 3.0 0.00 0.00 0.00 77 1011.2
20260830223812 85 248 0.0 3.0 0.00 0.00 0.00 75 1011.1
20260830223308 85 30 2.0 6.0 0.00 0.00 0.00 76 1011.2
20260830222802 85 41 1.0 1.0 0.00 0.00 0.00 74 1011.1
20260830222257 84 171 0.0 5.0 0.00 0.00 0.00 76 1011.2
20260830221752 84 6 4.0 5.0 0.00 0.00 0.00 76 1011.1
20260830221249 83 103 4.0 7.0 0.00 0.00 0.00 77 1011.0
20260830220743 83 63 0.0 6.0 0.00 0.00 0.00 77 1011.2
20260830220243 84 6 4.0 8.0 0.00 0.00 0.00 76 1011.3
20260830215741 84 118 1.0 5.0 0.00 0.00 0.00 76 1011.2
20260830215236 84 34 5.0 6.0 0.00 0.00 0.00 74 1011.3
20260830214731 84 92 1.0 3.0 0.00 0.00 0.00 76 1011.0
20260830214226 83 160 2.0 3.0 0.00 0.00 0.00 76 1011.2
20260830213725 84 90 3.0 5.0 0.00 0.00 0.00 74 1011.4
20260830213220 86 158 1.0 2.0 0.00 0.00 0.00 73 1011.4
20260830212716 86 113 1.0 3.0 0.00 0.00 0.00 72 1011.6
20260830212211 85 51 3.0 5.0 0.00 0.00 0.00 73 1011.7
20260830211706 85 355 3.0 6.0 0.00 0.00 0.00 73 1011.6
20260830211205 84 172 0.0 8.0 0.00 0.00 0.00 74 1011.7
20260830210701 84 136 1.0 7.0 0.00 0.00 0.00 73 1011.6
20260830210200 85 184 1.0 6.0 0.00 0.00 0.00 72 1011.6
20260830205657 84 139 1.0 6.0 0.00 0.00 0.00 73 1011.7
20260830205152 84 161 1.0 2.0 0.00 0.00 0.00 75 1011.7
20260830204647 84 102 3.0 5.0 0.00 0.00 0.00 75 1011.8
20260830204145 84 109 2.0 5.0 0.00 0.00 0.00 74 1012.1
20260830203642 85 7 1.0 3.0 0.00 0.00 0.00 72 1012.0
20260830203137 84 103 2.0 3.0 0.00 0.00 0.00 73 1012.0
20260830202636 84 129 2.0 6.0 0.00 0.00 0.00 73 1012.1
20260830202132 85 132 3.0 7.0 0.00 0.00 0.00 73 1011.8
20260830201631 84 257 2.0 5.0 0.00 0.00 0.00 74 1012.0
20260830201127 83 214 2.0 11.0 0.00 0.00 0.00 77 1011.8
20260830200622 84 143 4.0 6.0 0.00 0.00 0.00 74 1011.8
20260830200121 84 319 1.0 5.0 0.00 0.00 0.00 74 1011.8